Preview of NWS' New Version of Forecast
This preview is not operational and should not be used for support decisions.

Regional Weather Roundup (RWR)

Issued by National Weather Service (NWS)

                            
000
ASUS42 KTBW 171415
RWRFL 
FLORIDA REGIONAL WEATHER ROUNDUP
NATIONAL WEATHER SERVICE TAMPA BAY RUSKIN FL
1000 AM EDT WED APR 17 2019

NOTE: "FAIR" INDICATES FEW OR NO CLOUDS BELOW 12,000 FEET WITH NO
SIGNIFICANT WEATHER AND/OR OBSTRUCTIONS TO VISIBILITY.

FLZ001>010-012>015-112-114-115-171500-
PANHANDLE FLORIDA
  
CITY           SKY/WX    TMP DP  RH WIND       PRES   REMARKS
PENSACOLA      FAIR      69  63  81 E6        30.09F                  
PENSACOLA NAS  PTSUNNY   70  65  84 SE6       30.09S                  
MILTON NAS     PTSUNNY   66  60  81 E6        30.10F                  
CRESTVIEW      FAIR      65  52  62 CALM      30.13R                  
MARY ESTHER    PTSUNNY   66  60  79 CALM      30.09S                  
PANAMA CITY    FAIR      69  62  78 E8        30.11R                  
TYNDALL AFB    FAIR      71  64  79 SE13      30.11S                  
APALACHICOLA   FAIR      72  63  73 SE13      30.12S                  

STATION/POSITION SKY/WX   TEMP    WIND        PRES    WAVE   SWELL
                          AIR SEA DIR/SP/G            HT/PER HT/PER
                          (F)     (DEG/KT/KT) (MB)    (FT/S) (FT/S)
30.1N   87.6W                                 1019.3S   1/ 3   2/ 4
29.2N   88.2W                     140/ 10/ 12 1019.2R   2/ 4   2/ 5
PANAMA CITY BEAC           67 69  130/ 14/ 15 1019.8R
TOWER C          NOT AVBL

$$
FLZ011-016>038-118-127-128-134-139-239-171500-
NORTH FLORIDA
  
CITY           SKY/WX    TMP DP  RH WIND       PRES   REMARKS
MARIANNA       FAIR      67  62  84 S7        30.11S                  
TALLAHASSEE    CLOUDY    68  62  81 SE5       30.13S                  
PERRY          FAIR      70  62  74 SE6       30.15S                  
LIVE OAK       SUNNY     68  61  77 CALM      30.16R                  
CROSS CITY     FAIR      71  61  70 E6        30.15R                  
LAKE CITY      FAIR      68  61  77 E3        30.16S                  
GAINESVILLE    FAIR      74  61  63 E6        30.17S                  
PALATKA        FAIR      72  64  78 E3        30.17R                  
MAYPORT NAS    CLOUDY    73  64  73 NE7       30.16S                  
JACKSONVILLE   PTSUNNY   74  59  59 E6        30.16R                  
JAX NAS        PTSUNNY   74  57  55 SE6       30.17R                  
JAX CECIL      SUNNY     75  61  60 VRB5      30.16R                  
FERNANDINA BEA FAIR      72  62  69 E8        30.17R                  
ST AUGUSTINE   FAIR      73  62  68 E6        30.17R                  
PALM COAST     SUNNY     75  61  60 E12       30.15S                  

STATION/POSITION SKY/WX   TEMP    WIND        PRES    WAVE   SWELL
                          AIR SEA DIR/SP/G            HT/PER HT/PER
                          (F)     (DEG/KT/KT) (MB)    (FT/S) (FT/S)
SHELL POINT      NOT AVBL
KEATON BEACH               70     120/  5/  7 1020.9R
CEDAR KEY                  69     120/  6/  7 1020.8S
FERNANDINA                 74 67  100/  4/  6 1022.2R
30.7N   81.3W                 67                N/A     2/ 8
MAYPORT                    69 67   60/  6/  7 1021.4S
31.4N   80.9W              68 67   90/  4/  4 1022.2R   2/ 8   2/ 8
ST AUGUSTINE               71 69   50/  6/  6 1021.5R

$$
FLZ040-043>046-052-053-057-058-063-144-171500-
INTERIOR CENTRAL FLORIDA
  
CITY           SKY/WX    TMP DP  RH WIND       PRES   REMARKS
OCALA          FAIR      72  62  71 E3        30.16R                  
LEESBURG       FAIR      74  60  61 E5        30.15S                  
SANFORD        FAIR      76  62  62 E5        30.14S                  
ORLANDO EXEC   FAIR      77  60  55 VRB7      30.14R                  
ORLANDO INTL   FAIR      76  60  57 E8        30.14S                  
KISSIMMEE      FAIR      76  61  59 SE8       30.15S                  
WINTER HAVEN     N/A    N/A N/A N/A MISG      30.15S                  
LAKELAND       SUNNY     73  61  64 E7        30.14F                  
BARTOW         SUNNY     75  61  60 E8        30.13S                  
SEBRING        FAIR      75  62  65 E6        30.14S                  
OKEECHOBEE     FAIR      73  63  68 CALM      30.13S                  

$$
FLZ041-047-054-059-064-141-147-171500-
EAST CENTRAL FLORIDA
  
CITY           SKY/WX    TMP DP  RH WIND       PRES   REMARKS
ORMOND BEACH   MOSUNNY   75  63  64 NE8       30.15S                  
DAYTONA BEACH  FAIR      77  63  61 CALM      30.14F                  
DELAND         FAIR      75  63  64 NE5       30.14S                  
NEW SMYRNA BEA MOSUNNY   77  59  53 E5        30.16R                  
JFK SPACE CTR  FAIR      77  61  57 E5        30.14R                  
TITUSVILLE     MOSUNNY   79  59  50 VRB6      30.15R                  
CAPE CANAVERAL FAIR      78  56  45 SE7       30.13R                  
PATRICK AFB    FAIR      79  62  54 SE10      30.13R                  
MELBOURNE      FAIR      79  60  52 SE12      30.13S                  
VERO BEACH     PTSUNNY   78  60  53 E8        30.13S                  
FT PIERCE      CLOUDY    77  60  55 NE6       30.13S                  
STUART         MOSUNNY   77  57  50 E7        30.14R                  

STATION/POSITION SKY/WX   TEMP    WIND        PRES    WAVE   SWELL
                          AIR SEA DIR/SP/G            HT/PER HT/PER
                          (F)     (DEG/KT/KT) (MB)    (FT/S) (FT/S)
28.5N   80.2W              76     110/  8/ 12 1021.1
28.9N   78.5W              74 77  100/ 10/ 12 1021.6R   4/ 8   3/ 8
TRIDENT PIER               78 77   80/  6/  9 1021.7R
28.4N   80.5W                 76                N/A     2/ 8
27.5N   80.2W                 75                N/A     2/ 6

$$
FLZ050-056-061-142-242-148-248-149-249-151-251-155-255-
160-260-171500-
WEST CENTRAL FLORIDA
  
CITY           SKY/WX    TMP DP  RH WIND       PRES   REMARKS
CRYSTAL RIVER  FAIR      72  61  68 E5        30.15S                  
INVERNESS      FAIR      70  64  83 CALM      30.16R                  
BROOKSVILLE    FAIR      71  61  70 SE5       30.15R                  
CLEARWATER AIR FAIR      72  61  68 SE6       30.13S                  
ST PETE CLEARW FAIR      73  60  63 SE10      30.13S                  
TAMPA INTL     PTSUNNY   73  59  61 SE6       30.14S                  
TAMPA EXEC     FAIR      72  61  68 CALM      30.14S                  
PLANT CITY     FAIR      75  63  64 SE9       30.16S                  
MACDILL AFB    FAIR      73  61  65 SE6       30.13S                  
PETER O KNIGHT CLOUDY    73  63  68 SE5       30.14S                  
ST PETERSBURG  FAIR      72  62  71 SE6       30.12S                  
SARASOTA       FAIR      75  61  61 SE7       30.11F                  
VENICE         FAIR      77  63  61 E9        30.13S                  

STATION/POSITION SKY/WX   TEMP    WIND        PRES    WAVE   SWELL
                          AIR SEA DIR/SP/G            HT/PER HT/PER
                          (F)     (DEG/KT/KT) (MB)    (FT/S) (FT/S)
27.3N   84.2W                 75                N/A     4/ 5
CLEARWATER BEACH           73 76  120/  5/  7 1020.3R
MIDDLE TAMPA BAY           71     110/  4/  6 1020.4F
VENICE                     73 77  140/  7/  9 1019.9F

$$
FLZ066-069-070-075>078-162-262-165-265-171500-
SOUTHWEST FLORIDA AND KEYS
  
CITY           SKY/WX    TMP DP  RH WIND       PRES   REMARKS
PUNTA GORDA    FAIR      75  60  59 E7        30.14S                  
FT MYERS       FAIR      76  60  57 E8        30.12R                  
SOUTHWEST INTL FAIR      75  60  59 E8        30.12S                  
NAPLES         FAIR      77  64  64 E8        30.11S                  
MARCO ISLAND   FAIR      76  63  64 E8        30.12S                  
IMMOKALEE      FAIR      79  63  57 E8        30.10S                  
MARATHON         N/A    N/A N/A N/A MISG      30.08S                  
KEY WEST NAS   FAIR      81  62  52 E10       30.09R                  
KEY WEST INTL  FAIR      79  64  60 NE10G17   30.09R                  

STATION/POSITION SKY/WX   TEMP    WIND        PRES    WAVE   SWELL
                          AIR SEA DIR/SP/G            HT/PER HT/PER
                          (F)     (DEG/KT/KT) (MB)    (FT/S) (FT/S)
NAPLES                     75 79   90/  3/  8 1019.6F
DRY TORTUGAS               77      90/ 13/ 14 1018.8R
SAND KEY                   76                 1018.7R
SOMBRERO KEY               76                 1018.2R

$$
FLZ067-068-071>074-168-172>174-171500-
SOUTHEAST FLORIDA 
  
CITY           SKY/WX    TMP DP  RH WIND       PRES   REMARKS
W PALM BEACH   PTSUNNY   77  59  53 E12       30.12S                  
BOCA RATON     MOSUNNY   79  59  50 E10       30.12R                  
FT LAUDER-EXEC PTSUNNY   79  58  48 E12       30.11R                  
FT LAUDERDALE  FAIR      79  60  52 E10       30.10S                  
POMPANO BEACH  PTSUNNY   77  58  51 E9        30.11R                  
PEMBROKE PINES FAIR      79  60  52 E10       30.12S                  
OPA LOCKA      PTSUNNY   78  61  55 E7        30.11S                  
MIAMI          FAIR      78  60  53 E12       30.11S                  
WEST KENDALL   FAIR      78  61  55 NE9       30.10S                  
HOMESTEAD      FAIR      78  63  59 E13       30.09S                  

STATION/POSITION SKY/WX   TEMP    WIND        PRES    WAVE   SWELL
                          AIR SEA DIR/SP/G            HT/PER HT/PER
                          (F)     (DEG/KT/KT) (MB)    (FT/S) (FT/S)
PORT EVERGLADES            76      50/ 10/ 14 1019.7
VIRGINIA KEY               76 80   40/  8/ 11 1018.7S
LAKE WORTH                 76 78   90/ 11/ 14 1020.8R
SETTLEMENT POINT           74      80/  9/ 10 1020.3R

$$